WARNING - Please set your current conddition source. Defaulted to metar

Welkom op de weersite van Veghel e.o.

Voor vele een welkome verandering , het regent weer.

Temperatuur weer onder 25 graden dus;

Einde aan de hittegolf 2018.

Deze begon op 12 juli t/m 8 augustus totaal van 28 dagen.

Het warmst was het op 26 en 27 juli met 36.6 graden.


Webcam Veghel  Webcam Veghel


Onweer radar Meer informatie blitzortung!


waarschuwing voor winterse neerslag Meer informatie rain snow radar


U vindt ons ook hier:

Het Weer Aktueel

European Weather Network

Weather Underground

Benelux Weer Netwerk

AWEKAS


Sneeuw/IJzel/Bevriezing van: 15-12-2018 22:00 tot: 16-12-2018 10:00 waarschuwing voor: Sneeuw/IJzel/Bevriezing niveau: Geel info button
Kans op gladheid door sneeuwval.Kans op gladheid.Alle verkeersdeelnemers kunnen hinder ondervinden.Pas uw rijgedrag aan.Volg weerberichten en waarschuwingen.

Weather Underground Historische gegevens

Dagelijkse Samenvatting december 15, 2018 Eenheden:  Metrisch    Engels   Beide
« Vorige Dag
Volgende Dag »
Dagelijkse Wekelijkse Maandelijkse Jaarlijkse Aangepaste
  Huidig: Hoog: Laag: Gemiddeld:
Temperatuur: -17.7 °C -17.8 °C -17.8 °C -17.6 °C
Dauwpunt: -19.8 °C -17.8 °C -20.2 °C -19.3 °C
Vochtigheid: 75 % Humidity % 70 % 79 %
Wind snelheid: 15.6 km/h 0 km/h 0 km/h 11.4 km/h
Windvlaag: 31.1 km/h 0 km/h - -
Wind:ESE - - SE
Luchtdruk: 34544 hPa 0 hPa 34544 hPa -
Neerslag: 0 mm      
Historical Graphs
 
 
Tabel voor december 15, 2018
Tijd Temperatuur Dauwpunt Luchtdruk Wind Wind snelheid Windvlaag Vochtigheid Regenval per uur
-17.8 °C -17.8 °C 0 hPa Calm     Humidity % 0 mm
00:00 -17.6 °C -18.5 °C 34693 hPa East 5.1 km/h 5.1 km/h 88 % 0 mm
00:15 -17.6 °C -18.6 °C 34703.1 hPa East 2.6 km/h 2.6 km/h 88 % 0 mm
00:20 -17.6 °C -18.6 °C 34703.1 hPa Calm   2.6 km/h 88 % 0 mm
00:25 -17.6 °C -18.6 °C 34703.1 hPa Calm     88 % 0 mm
00:30 -17.6 °C -18.6 °C 34703.1 hPa East 2.6 km/h 2.6 km/h 88 % 0 mm
00:35 -17.6 °C -18.6 °C 34703.1 hPa East 2.6 km/h 2.6 km/h 88 % 0 mm
00:40 -17.6 °C -18.5 °C 34703.1 hPa East 2.6 km/h 2.6 km/h 89 % 0 mm
00:45 -17.6 °C -18.5 °C 34703.1 hPa East 2.6 km/h 2.6 km/h 89 % 0 mm
00:50 -17.6 °C -18.5 °C 34703.1 hPa Calm   2.6 km/h 89 % 0 mm
00:55 -17.6 °C -18.4 °C 34716.7 hPa Calm     90 % 0 mm
01:00 -17.6 °C -18.4 °C 34716.7 hPa Calm   2.6 km/h 90 % 0 mm
01:05 -17.6 °C -18.4 °C 34703.1 hPa East 2.6 km/h 2.6 km/h 90 % 0 mm
01:10 -17.6 °C -18.4 °C 34716.7 hPa East 2.6 km/h 2.6 km/h 90 % 0 mm
01:15 -17.7 °C -18.4 °C 34716.7 hPa East 2.6 km/h 2.6 km/h 90 % 0 mm
01:20 -17.7 °C -18.4 °C 34716.7 hPa Calm     90 % 0 mm
01:25 -17.7 °C -18.5 °C 34716.7 hPa Calm     90 % 0 mm
01:30 -17.7 °C -18.5 °C 34716.7 hPa Calm     90 % 0 mm
01:35 -17.7 °C -18.6 °C 34716.7 hPa Calm     90 % 0 mm
01:40 -17.7 °C -18.6 °C 34716.7 hPa Calm     90 % 0 mm
01:45 -17.8 °C -18.5 °C 34726.8 hPa Calm     91 % 0 mm
01:50 -17.8 °C -18.5 °C 34716.7 hPa Calm     91 % 0 mm
01:55 -17.8 °C -18.5 °C 34726.8 hPa Calm     91 % 0 mm
02:00 -17.8 °C -18.5 °C 34726.8 hPa Calm     91 % 0 mm
02:05 -17.7 °C -18.4 °C 34726.8 hPa Calm     91 % 0 mm
02:10 -17.7 °C -18.4 °C 34726.8 hPa Calm     91 % 0 mm
02:15 -17.8 °C -18.5 °C 34726.8 hPa Calm     91 % 0 mm
02:20 -17.8 °C -18.5 °C 34726.8 hPa Calm     91 % 0 mm
02:30 -17.8 °C -18.4 °C 34726.8 hPa Calm     92 % 0 mm
02:35 -17.8 °C -18.4 °C 34726.8 hPa Calm   2.6 km/h 92 % 0 mm
02:40 -17.8 °C -18.4 °C 34726.8 hPa East 2.6 km/h 2.6 km/h 92 % 0 mm
02:45 -17.8 °C -18.4 °C 34726.8 hPa East 5.1 km/h 5.1 km/h 92 % 0 mm
02:50 -17.8 °C -18.4 °C 34726.8 hPa East 5.1 km/h 5.1 km/h 92 % 0 mm
02:55 -17.8 °C -18.4 °C 34726.8 hPa East 5.1 km/h 5.1 km/h 92 % 0 mm
03:00 -17.7 °C -18.4 °C 34726.8 hPa East 5.1 km/h 5.1 km/h 92 % 0 mm
03:10 -17.7 °C -18.4 °C 34726.8 hPa East 5.1 km/h 5.1 km/h 91 % 0 mm
03:15 -17.7 °C -18.4 °C 34726.8 hPa East 2.6 km/h 5.1 km/h 92 % 0 mm
03:20 -17.7 °C -18.4 °C 34726.8 hPa ESE 5.1 km/h 5.1 km/h 91 % 0 mm
03:25 -17.7 °C -18.4 °C 34716.7 hPa ESE 5.1 km/h 7.7 km/h 91 % 0 mm
03:30 -17.7 °C -18.4 °C 34716.7 hPa ESE 7.7 km/h 7.7 km/h 91 % 0 mm
03:35 -17.7 °C -18.6 °C 34716.7 hPa SE 7.7 km/h 7.7 km/h 90 % 0 mm
03:40 -17.7 °C -18.5 °C 34726.8 hPa SE 5.1 km/h 5.1 km/h 90 % 0 mm
03:45 -17.7 °C -18.5 °C 34716.7 hPa SE 5.1 km/h 5.1 km/h 90 % 0 mm
03:50 -17.7 °C -18.6 °C 34716.7 hPa ESE 5.1 km/h 5.1 km/h 89 % 0 mm
03:55 -17.7 °C -18.6 °C 34716.7 hPa SE 5.1 km/h 7.7 km/h 89 % 0 mm
04:00 -17.7 °C -18.6 °C 34716.7 hPa SE 5.1 km/h 5.1 km/h 89 % 0 mm
04:15 -17.6 °C -18.6 °C 34716.7 hPa ESE 7.7 km/h 10.3 km/h 88 % 0 mm
04:20 -17.6 °C -18.6 °C 34703.1 hPa ESE 5.1 km/h 10.3 km/h 88 % 0 mm
04:25 -17.6 °C -18.7 °C 34703.1 hPa SE 5.1 km/h 7.7 km/h 87 % 0 mm
04:30 -17.6 °C -18.7 °C 34703.1 hPa East 5.1 km/h 12.9 km/h 87 % 0 mm
04:35 -17.7 °C -18.7 °C 34703.1 hPa ESE 7.7 km/h 7.7 km/h 87 % 0 mm
04:40 -17.7 °C -18.8 °C 34716.7 hPa ESE 7.7 km/h 7.7 km/h 86 % 0 mm
04:45 -17.7 °C -18.9 °C 34716.7 hPa ESE 5.1 km/h 7.7 km/h 85 % 0 mm
04:50 -17.7 °C -18.9 °C 34703.1 hPa ESE 5.1 km/h 7.7 km/h 85 % 0 mm
04:55 -17.7 °C -18.9 °C 34716.7 hPa ESE 5.1 km/h 5.1 km/h 85 % 0 mm
05:00 -17.7 °C -18.9 °C 34716.7 hPa SE 5.1 km/h 5.1 km/h 85 % 0 mm
05:05 -17.7 °C -18.9 °C 34716.7 hPa ESE 5.1 km/h 12.9 km/h 85 % 0 mm
05:10 -17.7 °C -18.9 °C 34716.7 hPa ESE 5.1 km/h 7.7 km/h 85 % 0 mm
05:15 -17.7 °C -19 °C 34716.7 hPa ESE 5.1 km/h 7.7 km/h 84 % 0 mm
05:20 -17.7 °C -19 °C 34703.1 hPa ESE 7.7 km/h 7.7 km/h 84 % 0 mm
05:25 -17.7 °C -19 °C 34703.1 hPa ESE 7.7 km/h 10.3 km/h 84 % 0 mm
05:30 -17.7 °C -19.1 °C 34716.7 hPa ESE 7.7 km/h 7.7 km/h 83 % 0 mm
05:35 -17.7 °C -19.1 °C 34703.1 hPa ESE 5.1 km/h 7.7 km/h 83 % 0 mm
05:40 -17.7 °C -19.1 °C 34703.1 hPa SE 5.1 km/h 12.9 km/h 83 % 0 mm
05:45 -17.7 °C -19.1 °C 34703.1 hPa SE 7.7 km/h 12.9 km/h 83 % 0 mm
05:50 -17.7 °C -19.1 °C 34703.1 hPa ESE 5.1 km/h 10.3 km/h 83 % 0 mm
05:55 -17.7 °C -19.1 °C 34703.1 hPa SE 7.7 km/h 10.3 km/h 83 % 0 mm
06:00 -17.7 °C -19.2 °C 34703.1 hPa SE 7.7 km/h 10.3 km/h 82 % 0 mm
06:05 -17.7 °C -19.2 °C 34703.1 hPa ESE 7.7 km/h 12.9 km/h 82 % 0 mm
06:10 -17.7 °C -19.2 °C 34703.1 hPa ESE 7.7 km/h 7.7 km/h 82 % 0 mm
06:15 -17.7 °C -19.2 °C 34703.1 hPa East 7.7 km/h 18.2 km/h 82 % 0 mm
06:20 -17.7 °C -19.2 °C 34703.1 hPa SE 10.3 km/h 10.3 km/h 82 % 0 mm
06:25 -17.7 °C -19.3 °C 34703.1 hPa ESE 7.7 km/h 10.3 km/h 81 % 0 mm
06:30 -17.7 °C -19.3 °C 34703.1 hPa ESE 7.7 km/h 7.7 km/h 81 % 0 mm
06:35 -17.7 °C -19.2 °C 34703.1 hPa ESE 5.1 km/h 12.9 km/h 82 % 0 mm
06:40 -17.7 °C -19.2 °C 34703.1 hPa ESE 5.1 km/h 5.1 km/h 82 % 0 mm
06:45 -17.7 °C -19.2 °C 34703.1 hPa SE 5.1 km/h 7.7 km/h 82 % 0 mm
06:50 -17.7 °C -19.2 °C 34703.1 hPa SE 5.1 km/h 7.7 km/h 82 % 0 mm
06:55 -17.7 °C -19.3 °C 34716.7 hPa SE 7.7 km/h 10.3 km/h 81 % 0 mm
07:00 -17.7 °C -19.3 °C 34703.1 hPa SE 7.7 km/h 7.7 km/h 81 % 0 mm
07:15 -17.7 °C -19.3 °C 34703.1 hPa SE 7.7 km/h 12.9 km/h 81 % 0 mm
07:20 -17.7 °C -19.3 °C 34703.1 hPa ESE 7.7 km/h 12.9 km/h 81 % 0 mm
07:25 -17.7 °C -19.3 °C 34703.1 hPa ESE 7.7 km/h 7.7 km/h 81 % 0 mm
07:30 -17.7 °C -19.3 °C 34703.1 hPa ESE 10.3 km/h 10.3 km/h 81 % 0 mm
07:35 -17.7 °C -19.3 °C 34703.1 hPa SE 10.3 km/h 10.3 km/h 81 % 0 mm
07:40 -17.7 °C -19.3 °C 34703.1 hPa SE 10.3 km/h 10.3 km/h 81 % 0 mm
07:45 -17.7 °C -19.3 °C 34703.1 hPa SE 10.3 km/h 10.3 km/h 80 % 0 mm
07:50 -17.7 °C -19.3 °C 34703.1 hPa SE 10.3 km/h 12.9 km/h 81 % 0 mm
07:55 -17.7 °C -19.3 °C 34703.1 hPa SE 10.3 km/h 12.9 km/h 81 % 0 mm
08:00 -17.7 °C -19.3 °C 34703.1 hPa SSE 7.7 km/h 7.7 km/h 81 % 0 mm
08:05 -17.7 °C -19.4 °C 34703.1 hPa SE 7.7 km/h 7.7 km/h 80 % 0 mm
08:10 -17.7 °C -19.4 °C 34703.1 hPa SE 10.3 km/h 10.3 km/h 80 % 0 mm
08:15 -17.7 °C -19.4 °C 34703.1 hPa SSE 10.3 km/h 10.3 km/h 80 % 0 mm
08:20 -17.7 °C -19.4 °C 34703.1 hPa SE 10.3 km/h 15.6 km/h 80 % 0 mm
08:25 -17.7 °C -19.4 °C 34703.1 hPa SSE 10.3 km/h 15.6 km/h 80 % 0 mm
08:30 -17.7 °C -19.4 °C 34703.1 hPa SE 10.3 km/h 10.3 km/h 80 % 0 mm
08:35 -17.7 °C -19.5 °C 34703.1 hPa SSE 10.3 km/h 10.3 km/h 79 % 0 mm
08:40 -17.7 °C -19.6 °C 34703.1 hPa ESE 10.3 km/h 12.9 km/h 78 % 0 mm
08:45 -17.7 °C -19.6 °C 34703.1 hPa SE 10.3 km/h 12.9 km/h 78 % 0 mm
08:50 -17.7 °C -19.7 °C 34703.1 hPa SE 10.3 km/h 10.3 km/h 77 % 0 mm
08:55 -17.7 °C -19.7 °C 34716.7 hPa SE 10.3 km/h 15.6 km/h 77 % 0 mm
09:00 -17.7 °C -19.7 °C 34703.1 hPa East 10.3 km/h 12.9 km/h 77 % 0 mm
09:05 -17.7 °C -19.8 °C 34716.7 hPa SE 10.3 km/h 12.9 km/h 76 % 0 mm
09:10 -17.7 °C -19.8 °C 34716.7 hPa SE 10.3 km/h 12.9 km/h 76 % 0 mm
09:15 -17.7 °C -19.8 °C 34716.7 hPa ESE 10.3 km/h 12.9 km/h 76 % 0 mm
09:20 -17.7 °C -19.8 °C 34716.7 hPa SE 12.9 km/h 15.6 km/h 76 % 0 mm
09:25 -17.7 °C -19.8 °C 34716.7 hPa ESE 12.9 km/h 15.6 km/h 76 % 0 mm
09:30 -17.7 °C -19.8 °C 34716.7 hPa ESE 12.9 km/h 18.2 km/h 76 % 0 mm
09:35 -17.7 °C -19.8 °C 34716.7 hPa SSE 12.9 km/h 18.2 km/h 76 % 0 mm
09:40 -17.7 °C -19.8 °C 34716.7 hPa SSE 12.9 km/h 18.2 km/h 76 % 0 mm
09:45 -17.7 °C -19.8 °C 34716.7 hPa SE 12.9 km/h 18.2 km/h 76 % 0 mm
09:50 -17.7 °C -19.8 °C 34726.8 hPa ESE 12.9 km/h 12.9 km/h 76 % 0 mm
09:55 -17.7 °C -19.8 °C 34716.7 hPa East 10.3 km/h 12.9 km/h 76 % 0 mm
10:00 -17.7 °C -19.8 °C 34726.8 hPa SE 10.3 km/h 10.3 km/h 75 % 0 mm
10:15 -17.6 °C -19.9 °C 34716.7 hPa SSE 15.6 km/h 15.6 km/h 74 % 0 mm
10:20 -17.6 °C -20 °C 34716.7 hPa SSE 15.6 km/h 15.6 km/h 73 % 0 mm
10:25 -17.6 °C -20 °C 34716.7 hPa SE 15.6 km/h 15.6 km/h 73 % 0 mm
10:30 -17.6 °C -19.9 °C 34716.7 hPa SE 15.6 km/h 18.2 km/h 73 % 0 mm
10:35 -17.6 °C -20.1 °C 34716.7 hPa SSE 18.2 km/h 20.8 km/h 72 % 0 mm
10:40 -17.6 °C -20.1 °C 34716.7 hPa SSE 15.6 km/h 20.8 km/h 72 % 0 mm
10:45 -17.6 °C -20.2 °C 34716.7 hPa SE 15.6 km/h 28.5 km/h 71 % 0 mm
10:50 -17.6 °C -20.2 °C 34716.7 hPa SSE 18.2 km/h 28.5 km/h 70 % 0 mm
10:55 -17.6 °C -20.2 °C 34716.7 hPa SE 20.8 km/h 20.8 km/h 70 % 0 mm
11:00 -17.6 °C -20.1 °C 34703.1 hPa SSE 18.2 km/h 18.2 km/h 71 % 0 mm
11:05 -17.5 °C -20.1 °C 34703.1 hPa SSE 18.2 km/h 18.2 km/h 71 % 0 mm
11:10 -17.5 °C -20.1 °C 34703.1 hPa SE 15.6 km/h 15.6 km/h 71 % 0 mm
11:15 -17.4 °C -19.9 °C 34703.1 hPa SE 12.9 km/h 15.6 km/h 72 % 0 mm
11:20 -17.4 °C -20.1 °C 34703.1 hPa South 12.9 km/h 12.9 km/h 71 % 0 mm
11:25 -17.4 °C -20.1 °C 34703.1 hPa SE 18.2 km/h 18.2 km/h 71 % 0 mm
11:30 -17.4 °C -19.9 °C 34703.1 hPa SE 18.2 km/h 28.5 km/h 72 % 0 mm
11:35 -17.4 °C -20.2 °C 34693 hPa SSE 18.2 km/h 28.5 km/h 70 % 0 mm
11:40 -17.4 °C -20.2 °C 34693 hPa SSE 18.2 km/h 18.2 km/h 70 % 0 mm
11:45 -17.4 °C -20.1 °C 34693 hPa SE 18.2 km/h 18.2 km/h 71 % 0 mm
11:50 -17.4 °C -20.1 °C 34693 hPa SE 18.2 km/h 20.8 km/h 70 % 0 mm
11:55 -17.4 °C -20 °C 34682.8 hPa ESE 18.2 km/h 20.8 km/h 71 % 0 mm
12:00 -17.4 °C -20 °C 34682.8 hPa SSE 15.6 km/h 15.6 km/h 71 % 0 mm
12:05 -17.4 °C -19.9 °C 34682.8 hPa SE 15.6 km/h 15.6 km/h 72 % 0 mm
12:10 -17.4 °C -19.9 °C 34682.8 hPa SSE 15.6 km/h 20.8 km/h 71 % 0 mm
12:15 -17.4 °C -19.9 °C 34669.3 hPa SE 18.2 km/h 20.8 km/h 72 % 0 mm
12:20 -17.4 °C -19.9 °C 34669.3 hPa SE 18.2 km/h 23.3 km/h 71 % 0 mm
12:25 -17.4 °C -19.9 °C 34669.3 hPa SSE 18.2 km/h 23.3 km/h 71 % 0 mm
12:30 -17.4 °C -19.9 °C 34669.3 hPa SE 18.2 km/h 18.2 km/h 72 % 0 mm
12:35 -17.4 °C -19.9 °C 34669.3 hPa SE 15.6 km/h 18.2 km/h 72 % 0 mm
12:40 -17.4 °C -19.9 °C 34669.3 hPa SE 15.6 km/h 25.9 km/h 72 % 0 mm
12:45 -17.4 °C -20 °C 34659.1 hPa SE 18.2 km/h 25.9 km/h 71 % 0 mm
12:50 -17.4 °C -19.9 °C 34659.1 hPa SSE 20.8 km/h 20.8 km/h 72 % 0 mm
12:55 -17.4 °C -20 °C 34659.1 hPa SSE 20.8 km/h 20.8 km/h 71 % 0 mm
13:00 -17.4 °C -20 °C 34645.6 hPa SE 20.8 km/h 20.8 km/h 71 % 0 mm
13:15 -17.4 °C -19.9 °C 34645.6 hPa ESE 15.6 km/h 25.9 km/h 71 % 0 mm
13:20 -17.3 °C -19.9 °C 34645.6 hPa South 20.8 km/h 25.9 km/h 71 % 0 mm
13:25 -17.3 °C -19.9 °C 34645.6 hPa SSE 23.3 km/h 23.3 km/h 71 % 0 mm
13:30 -17.3 °C -19.9 °C 34645.6 hPa SE 20.8 km/h 23.3 km/h 71 % 0 mm
13:35 -17.3 °C -19.9 °C 34635.4 hPa SSE 15.6 km/h 23.3 km/h 71 % 0 mm
13:40 -17.3 °C -19.9 °C 34635.4 hPa South 18.2 km/h 25.9 km/h 71 % 0 mm
13:45 -17.3 °C -20 °C 34625.2 hPa East 20.8 km/h 20.8 km/h 70 % 0 mm
13:50 -17.3 °C -19.9 °C 34635.4 hPa South 18.2 km/h 20.8 km/h 71 % 0 mm
13:55 -17.3 °C -19.9 °C 34625.2 hPa SE 18.2 km/h 44.1 km/h 71 % 0 mm
14:00 -17.3 °C -19.9 °C 34625.2 hPa SE 25.9 km/h 33.6 km/h 71 % 0 mm
14:05 -17.3 °C -19.9 °C 34635.4 hPa SSE 25.9 km/h 33.6 km/h 71 % 0 mm
14:10 -17.3 °C -19.9 °C 34625.2 hPa SE 23.3 km/h 25.9 km/h 71 % 0 mm
14:15 -17.3 °C -20 °C 34625.2 hPa SE 23.3 km/h 31.1 km/h 70 % 0 mm
14:20 -17.3 °C -20 °C 34625.2 hPa ESE 23.3 km/h 28.5 km/h 70 % 0 mm
14:25 -17.3 °C -19.9 °C 34611.7 hPa SE 25.9 km/h 28.5 km/h 71 % 0 mm
14:30 -17.3 °C -19.9 °C 34611.7 hPa SE 23.3 km/h 25.9 km/h 71 % 0 mm
14:35 -17.3 °C -20 °C 34611.7 hPa SSE 25.9 km/h 25.9 km/h 70 % 0 mm
14:40 -17.3 °C -19.9 °C 34611.7 hPa SSE 25.9 km/h 25.9 km/h 71 % 0 mm
14:45 -17.3 °C -19.9 °C 34611.7 hPa SE 23.3 km/h 28.5 km/h 71 % 0 mm
14:50 -17.3 °C -19.9 °C 34611.7 hPa SSE 25.9 km/h 38.8 km/h 71 % 0 mm
14:55 -17.3 °C -19.9 °C 34601.5 hPa SSE 28.5 km/h 38.8 km/h 71 % 0 mm
15:00 -17.3 °C -19.9 °C 34601.5 hPa SE 25.9 km/h 25.9 km/h 71 % 0 mm
15:05 -17.3 °C -19.9 °C 34601.5 hPa SSE 25.9 km/h 31.1 km/h 71 % 0 mm
15:10 -17.3 °C -19.9 °C 34591.4 hPa SE 25.9 km/h 25.9 km/h 71 % 0 mm
15:15 -17.3 °C -19.9 °C 34591.4 hPa SE 23.3 km/h 25.9 km/h 71 % 0 mm
15:20 -17.3 °C -19.8 °C 34577.8 hPa SE 18.2 km/h 18.2 km/h 72 % 0 mm
15:25 -17.3 °C -19.8 °C 34577.8 hPa SE 20.8 km/h 20.8 km/h 72 % 0 mm
15:30 -17.3 °C -19.9 °C 34577.8 hPa SE 23.3 km/h 25.9 km/h 71 % 0 mm
15:35 -17.4 °C -19.9 °C 34577.8 hPa SE 20.8 km/h 31.1 km/h 72 % 0 mm
15:40 -17.4 °C -19.9 °C 34577.8 hPa SE 20.8 km/h 20.8 km/h 72 % 0 mm
15:45 -17.4 °C -19.9 °C 34567.7 hPa SE 23.3 km/h 31.1 km/h 72 % 0 mm
15:50 -17.4 °C -19.9 °C 34567.7 hPa SSE 25.9 km/h 25.9 km/h 72 % 0 mm
15:55 -17.4 °C -19.9 °C 34567.7 hPa East 25.9 km/h 28.5 km/h 72 % 0 mm
16:00 -17.4 °C -19.8 °C 34554.1 hPa ESE 23.3 km/h 23.3 km/h 73 % 0 mm
16:15 -17.5 °C -19.8 °C 34544 hPa ESE 18.2 km/h 20.8 km/h 74 % 0 mm
16:20 -17.6 °C -19.9 °C 34544 hPa SE 15.6 km/h 20.8 km/h 74 % 0 mm
16:25 -17.6 °C -19.9 °C 34544 hPa ESE 15.6 km/h 31.1 km/h 74 % 0 mm
16:30 -17.7 °C -19.8 °C 34544 hPa ESE 15.6 km/h 31.1 km/h 75 % 0 mm
Veghelsweer
Gegevens verzameld door Weather Underground - 2.5 mb

Script ontwikkeld door  Jim McMurry - jmcmurry@mwt.net Aangepast voor de template door  Wim van der Kuil - Leuven-Template.eu

Apparatuur in gebruik:

Weerstation
Davis VP2

Weerprogramma
WeatherLink

Weercomputer
Sponsor

Webleverancier
My provider

Davis VP2

WeatherLink

Sponsor

My provider